Location: Azenweiler
(47.8027°N, 9.4096°E)
Time: 16:44:20
(UTC+00:00)

Cosmos 1833 - Pass Details

Date: 10 December 2025
Orbit: 832 x 866 km, 70.9° (Epoch: 16 January)

Event Time Altitude Azimuth Distance (km) Brightness Sun altitude
Rises 05:52:25 0° 210° (SSW) 3,374 7.3 -10.9°
Reaches altitude 10° 05:54:50 10° 212° (SSW) 2,447 6.5 -10.5°
Maximum altitude 06:00:28 78° 299° (WNW) 868 4.2 -9.6°
Drops below altitude 10° 06:06:11 10° 26° (NNE) 2,486 6.7 -8.7°
Sets 06:08:40 0° 28° (NNE) 3,432 7.4 -8.4°
